| time (UTC) | temp F | wind direction | speed MPH | gust MPH | rain 1hr in | rain 24hr in | rain mn in | humidity % | barometer mb |
| 20260506073011 | 54 | 5 | 4.0 | 10.0 | 0.00 | 0.00 | 0.00 | 84 | 1010.9 |
| 20260506071514 | 55 | 20 | 6.0 | 10.0 | 0.00 | 0.00 | 0.00 | 83 | 1010.9 |
| 20260506061512 | 57 | 5 | 3.0 | 6.0 | 0.00 | 0.00 | 0.00 | 81 | 1010.1 |
| 20260506044521 | 61 | 352 | 4.0 | 13.0 | 0.00 | 0.00 | 0.00 | 76 | 1010.7 |
| 20260506043023 | 62 | 33 | 6.0 | 14.0 | 0.00 | 0.00 | 0.00 | 75 | 1010.2 |
| 20260506041522 | 64 | 40 | 6.0 | 12.0 | 0.00 | 0.00 | 0.00 | 73 | 1010.1 |
| 20260506040019 | 65 | 53 | 5.0 | 11.0 | 0.00 | 0.00 | 0.00 | 72 | 1010.1 |
| 20260506034520 | 65 | 344 | 4.0 | 11.0 | 0.00 | 0.00 | 0.00 | 72 | 1009.8 |
| 20260506033023 | 66 | 24 | 4.0 | 10.0 | 0.00 | 0.00 | 0.00 | 69 | 1009.9 |
| 20260506031510 | 66 | 352 | 5.0 | 10.0 | 0.00 | 0.00 | 0.00 | 68 | 1009.7 |
| 20260506030015 | 67 | 350 | 4.0 | 9.0 | 0.00 | 0.00 | 0.00 | 68 | 1009.4 |
| 20260506024520 | 67 | 15 | 6.0 | 11.0 | 0.00 | 0.00 | 0.00 | 67 | 1009.0 |
| 20260506023024 | 68 | 32 | 6.0 | 11.0 | 0.00 | 0.00 | 0.00 | 66 | 1008.5 |
| 20260506021506 | 68 | 34 | 2.0 | 10.0 | 0.00 | 0.00 | 0.00 | 66 | 1007.9 |
| 20260506020013 | 69 | 352 | 6.0 | 10.0 | 0.00 | 0.00 | 0.00 | 64 | 1007.8 |
| 20260506014517 | 70 | 30 | 7.0 | 15.0 | 0.00 | 0.00 | 0.00 | 63 | 1007.3 |
| 20260506013021 | 71 | 5 | 12.0 | 15.0 | 0.00 | 0.00 | 0.00 | 63 | 1007.2 |
| 20260506011530 | 72 | 352 | 8.0 | 14.0 | 0.00 | 0.00 | 0.00 | 63 | 1006.8 |
| 20260506010009 | 74 | 49 | 5.0 | 14.0 | 0.00 | 0.00 | 0.00 | 61 | 1006.0 |
| 20260506004523 | 76 | 13 | 6.0 | 16.0 | 0.00 | 0.00 | 0.00 | 60 | 1006.0 |
| 20260506003022 | 77 | 9 | 7.0 | 12.0 | 0.00 | 0.00 | 0.00 | 59 | 1005.9 |
| 20260506001524 | 78 | 51 | 4.0 | 16.0 | 0.00 | 0.00 | 0.00 | 58 | 1005.7 |
| 20260506000009 | 80 | 11 | 8.0 | 15.0 | 0.00 | 0.00 | 0.00 | 56 | 1005.6 |
| 20260505234513 | 86 | 14 | 5.0 | 14.0 | 0.00 | 0.00 | 0.00 | 49 | 1005.7 |
| 20260505233021 | 88 | 192 | 2.0 | 5.0 | 0.00 | 0.00 | 0.00 | 50 | 1005.3 |
| 20260505231529 | 87 | 182 | 4.0 | 8.0 | 0.00 | 0.00 | 0.00 | 51 | 1005.2 |
| 20260505230040 | 87 | 196 | 6.0 | 10.0 | 0.00 | 0.00 | 0.00 | 49 | 1004.9 |
| 20260505224510 | 88 | 199 | 6.0 | 14.0 | 0.00 | 0.00 | 0.00 | 49 | 1004.7 |
| 20260505223017 | 89 | 186 | 7.0 | 13.0 | 0.00 | 0.00 | 0.00 | 48 | 1004.7 |
| 20260505221523 | 88 | 160 | 4.0 | 9.0 | 0.00 | 0.00 | 0.00 | 50 | 1004.8 |
| 20260505220024 | 88 | 175 | 6.0 | 9.0 | 0.00 | 0.00 | 0.00 | 51 | 1005.0 |
| 20260505214528 | 88 | 211 | 6.0 | 10.0 | 0.00 | 0.00 | 0.00 | 51 | 1005.1 |
| 20260505213019 | 88 | 178 | 5.0 | 9.0 | 0.00 | 0.00 | 0.00 | 53 | 1005.1 |
| 20260505211530 | 88 | 188 | 6.0 | 10.0 | 0.00 | 0.00 | 0.00 | 52 | 1005.0 |
| 20260505210024 | 89 | 171 | 9.0 | 12.0 | 0.00 | 0.00 | 0.00 | 49 | 1005.2 |
| 20260505204528 | 89 | 159 | 4.0 | 10.0 | 0.00 | 0.00 | 0.00 | 47 | 1005.5 |
| 20260505203017 | 89 | 265 | 6.0 | 13.0 | 0.00 | 0.00 | 0.00 | 43 | 1005.4 |
| 20260505201520 | 89 | 209 | 6.0 | 12.0 | 0.00 | 0.00 | 0.00 | 42 | 1005.9 |
| 20260505200026 | 88 | 233 | 5.0 | 10.0 | 0.00 | 0.00 | 0.00 | 47 | 1006.2 |
| 20260505194524 | 88 | 229 | 3.0 | 11.0 | 0.00 | 0.00 | 0.00 | 51 | 1006.1 |
| 20260505193028 | 87 | 242 | 7.0 | 12.0 | 0.00 | 0.00 | 0.00 | 51 | 1006.4 |
| 20260505191520 | 86 | 271 | 9.0 | 12.0 | 0.00 | 0.00 | 0.00 | 48 | 1006.4 |
| 20260505190022 | 86 | 252 | 8.0 | 12.0 | 0.00 | 0.00 | 0.00 | 52 | 1006.6 |
| 20260505184535 | 86 | 237 | 7.0 | 15.0 | 0.00 | 0.00 | 0.00 | 56 | 1006.8 |
| 20260505183027 | 84 | 219 | 8.0 | 16.0 | 0.00 | 0.00 | 0.00 | 57 | 1006.9 |
| 20260505181514 | 84 | 237 | 7.0 | 13.0 | 0.00 | 0.00 | 0.00 | 60 | 1007.1 |
| 20260505180004 | 84 | 261 | 9.0 | 16.0 | 0.00 | 0.00 | 0.00 | 58 | 1007.1 |
| 20260505174507 | 83 | 203 | 5.0 | 16.0 | 0.00 | 0.00 | 0.00 | 62 | 1007.0 |
| 20260505173007 | 83 | 217 | 8.0 | 18.0 | 0.00 | 0.00 | 0.00 | 61 | 1007.1 |
| 20260505171522 | 82 | 263 | 7.0 | 15.0 | 0.00 | 0.00 | 0.00 | 64 | 1007.2 |
| 20260505170020 | 80 | 231 | 8.0 | 12.0 | 0.00 | 0.00 | 0.00 | 65 | 1007.1 |
| 20260505164505 | 79 | 241 | 7.0 | 14.0 | 0.00 | 0.00 | 0.00 | 68 | 1007.2 |
| 20260505163010 | 79 | 202 | 8.0 | 15.0 | 0.00 | 0.00 | 0.00 | 68 | 1007.2 |
| 20260505161511 | 78 | 200 | 7.0 | 12.0 | 0.00 | 0.00 | 0.00 | 69 | 1007.2 |
| 20260505153012 | 76 | 210 | 8.0 | 17.0 | 0.00 | 0.00 | 0.00 | 72 | 1007.0 |
| 20260505151512 | 76 | 213 | 7.0 | 12.0 | 0.00 | 0.00 | 0.00 | 73 | 1006.9 |
| 20260505124519 | 66 | 164 | 4.0 | 10.0 | 0.00 | 0.00 | 0.00 | 88 | 1005.9 |
| 20260505123030 | 65 | 193 | 5.0 | 9.0 | 0.00 | 0.00 | 0.00 | 88 | 1006.0 |
| 20260505121508 | 65 | 182 | 5.0 | 9.0 | 0.00 | 0.00 | 0.00 | 88 | 1005.8 |
| 20260505120014 | 65 | 189 | 5.0 | 7.0 | 0.00 | 0.00 | 0.00 | 88 | 1005.9 |
| 20260505114521 | 65 | 360 | 5.0 | 8.0 | 0.00 | 0.00 | 0.00 | 87 | 1005.6 |
| 20260505113022 | 66 | 185 | 6.0 | 12.0 | 0.00 | 0.00 | 0.00 | 87 | 1005.6 |
| 20260505111532 | 66 | 184 | 7.0 | 11.0 | 0.00 | 0.00 | 0.00 | 87 | 1005.5 |
| 20260505101524 | 67 | 190 | 5.0 | 10.0 | 0.00 | 0.00 | 0.00 | 84 | 1005.5 |
| 20260505100032 | 67 | 197 | 7.0 | 11.0 | 0.00 | 0.00 | 0.00 | 84 | 1005.5 |
| 20260505094511 | 67 | 191 | 8.0 | 15.0 | 0.00 | 0.00 | 0.00 | 84 | 1005.5 |
| 20260505093020 | 68 | 205 | 8.0 | 11.0 | 0.00 | 0.00 | 0.00 | 83 | 1005.7 |
| 20260505091504 | 68 | 360 | 7.0 | 11.0 | 0.00 | 0.00 | 0.00 | 83 | 1005.7 |
| 20260505090009 | 68 | 203 | 8.0 | 10.0 | 0.00 | 0.00 | 0.00 | 82 | 1005.9 |
| 20260505084514 | 68 | 187 | 8.0 | 14.0 | 0.00 | 0.00 | 0.00 | 81 | 1006.0 |
| 20260505083019 | 69 | 183 | 7.0 | 13.0 | 0.00 | 0.00 | 0.00 | 81 | 1005.9 |
| 20260505081525 | 69 | 360 | 9.0 | 12.0 | 0.00 | 0.00 | 0.00 | 80 | 1006.3 |